IRIDIUM 95

Last updated on Wed Nov 29 2017 00:19:03 GMT+0000 (Greenwich Mean Time)

1 27375U 02005D 17332.22085835 .00000199 00000-0 63918-4 0 9990 2 27375 86.3993 218.6126 0001201 70.7499 289.3826 14.34219617834427
UTC large
Height (km)
Speed (km/s)
/
Latitude / Longitude
Inclination (degrees)
Orbital Period (minutes)
Azimuth
Elevation
Range (km)
Doppler Factor

Next 0 passes for location: London (51.5072 / 0.1276)

Sorry there are no passes over London.